Location: Mason Neck State Park
(38.6428°N, 77.1981°W)
Time: 08:12:47
(UTC-05:00)

Cosmos 2278 Rocket - Visible Passes

Search period start: 21 January 2017 00:00
Search period end: 31 January 2017 00:00
Orbit: 840 x 847 km, 71.0° (Epoch: 20 January)

Date Brightness Start Highest point End Pass type
(mag) Time Alt. Az. Time Alt. Az. Time Alt. Az.
21 Jan 3.9 18:58:28 10° NW 19:03:32 34° WSW 19:08:35 10° SSW visible
22 Jan 3.9 18:43:54 10° NW 18:49:01 36° WSW 18:54:07 10° S visible
23 Jan 3.8 18:29:19 10° NW 18:34:31 37° WSW 18:39:40 10° S visible
24 Jan 3.8 18:14:45 10° NW 18:19:59 39° WSW 18:25:12 10° S visible
25 Jan 3.8 18:00:11 10° NW 18:05:28 41° WSW 18:10:44 10° S visible
26 Jan 3.7 17:45:36 10° NW 17:50:57 43° WSW 17:56:16 10° S visible
27 Jan 2.8 06:51:22 10° S 06:56:56 65° ESE 07:02:33 10° NNE visible
28 Jan 2.9 06:36:51 10° S 06:42:25 62° ESE 06:48:01 10° NNE visible
29 Jan 2.9 06:22:21 10° S 06:27:54 59° ESE 06:33:28 10° NNE visible
30 Jan 3.0 06:07:51 10° S 06:13:21 57° ESE 06:18:55 10° NNE visible
